GW2897 Weather Reports


Display with metric or nautical units.
time (UTC)temp
F
wind
direction
speed
MPH
gust
MPH
rain 1hr
in
rain 24hr
in
rain mn
in
humidity
%
barometer
mb
20260509055406 57 0 0.0 0.0 0.00 0.00 0.00 92 1013.2
20260509054503 58 0 0.0 0.0 0.00 0.00 0.00 91 1013.4
20260509053604 58 0 0.0 0.0 0.00 0.00 0.00 91 1013.3
20260509052725 58 0 0.0 0.0 0.00 0.00 0.00 91 1013.6
20260509051803 58 0 0.0 0.0 0.00 0.00 0.00 91 1013.8
20260509050903 58 0 0.0 0.0 0.00 0.00 0.00 91 1014.0
20260509050011 58 0 0.0 0.0 0.00 0.00 0.00 92 1013.9
20260509045403 58 0 0.0 0.0 0.00 0.00 0.00 91 1013.9
20260509044524 59 0 0.0 0.0 0.00 0.00 0.00 91 1013.8
20260509043603 59 0 0.0 0.0 0.00 0.00 0.00 90 1013.8
20260509042703 59 0 0.0 0.0 0.00 0.00 0.00 91 1013.9
20260509041824 59 145 0.0 1.0 0.00 0.00 0.00 91 1014.1
20260509040903 59 118 0.0 1.0 0.00 0.00 0.00 91 1014.1
20260509040004 59 118 0.0 1.0 0.00 0.00 0.00 92 1014.2
20260509035403 59 0 0.0 0.0 0.00 0.00 0.00 92 1014.2
20260509034525 59 0 0.0 0.0 0.00 0.00 0.00 91 1014.4
20260509033603 59 0 0.0 0.0 0.00 0.00 0.00 91 1014.4
20260509032703 59 0 0.0 0.0 0.00 0.00 0.00 91 1014.5
20260509031805 59 0 0.0 0.0 0.00 0.00 0.00 91 1014.6
20260509030952 59 0 0.0 0.0 0.00 0.00 0.00 90 1014.7
20260509030006 59 0 0.0 0.0 0.00 0.00 0.00 90 1014.4
20260509025404 59 0 0.0 0.0 0.00 0.00 0.00 90 1014.4
20260509024505 59 0 0.0 0.0 0.00 0.00 0.00 89 1014.3
20260509023604 60 120 0.0 1.0 0.00 0.00 0.00 89 1014.3
20260509022704 60 0 0.0 0.0 0.00 0.00 0.00 88 1014.4
20260509021804 60 0 0.0 0.0 0.00 0.00 0.00 88 1014.4
20260509020906 60 0 0.0 0.0 0.00 0.00 0.00 88 1014.3
20260509020005 61 120 0.0 1.0 0.00 0.00 0.00 88 1014.3
20260509015404 61 120 0.0 1.0 0.00 0.00 0.00 87 1014.3
20260509014505 61 0 0.0 0.0 0.00 0.00 0.00 87 1014.4
20260509013605 61 121 0.0 1.0 0.00 0.00 0.00 87 1014.2
20260509012705 61 0 0.0 0.0 0.00 0.00 0.00 86 1014.3
20260509011805 61 0 0.0 0.0 0.00 0.00 0.00 86 1014.1
20260509010905 61 0 0.0 0.0 0.00 0.00 0.00 86 1014.0
20260509010005 61 0 0.0 0.0 0.00 0.00 0.00 87 1014.0
20260509005405 62 0 0.0 0.0 0.00 0.00 0.00 86 1013.9
20260509004535 62 0 0.0 0.0 0.00 0.00 0.00 85 1013.8
20260509003626 62 0 0.0 0.0 0.00 0.00 0.00 84 1013.9
20260509002704 62 0 0.0 0.0 0.00 0.00 0.00 84 1014.1
20260509001804 63 116 0.0 1.0 0.00 0.00 0.00 85 1014.0
20260509000925 63 0 0.0 0.0 0.00 0.00 0.00 85 1013.8
20260509000004 64 0 0.0 0.0 0.00 0.00 0.00 83 1013.6
20260508235405 64 0 0.0 0.0 0.00 0.00 0.00 82 1013.5
20260508234504 64 0 0.0 0.0 0.00 0.00 0.00 79 1013.5
20260508233604 65 115 0.0 1.0 0.00 0.00 0.00 80 1013.2
20260508232704 66 115 0.0 1.0 0.00 0.00 0.00 75 1013.5
20260508231805 66 0 0.0 0.0 0.00 0.00 0.00 77 1013.4
20260508230904 67 0 0.0 0.0 0.00 0.00 0.00 76 1013.5
20260508230004 67 0 0.0 0.0 0.00 0.00 0.00 76 1013.5
20260508225439 67 0 0.0 0.0 0.00 0.00 0.00 77 1013.7
20260508224505 68 0 0.0 0.0 0.00 0.00 0.00 73 1013.7
20260508223626 68 115 0.0 1.0 0.00 0.00 0.00 77 1013.5
20260508222735 68 0 0.0 0.0 0.00 0.00 0.00 76 1013.7
20260508221804 69 0 0.0 0.0 0.00 0.00 0.00 71 1013.6
20260508220905 70 0 0.0 0.0 0.00 0.00 0.00 70 1013.7
20260508220034 71 115 0.0 1.0 0.00 0.00 0.00 60 1013.5
20260508215426 71 118 0.0 1.0 0.00 0.00 0.00 63 1013.4
20260508214505 72 126 0.0 1.0 0.00 0.00 0.00 62 1013.6
20260508213605 72 223 0.0 1.0 0.00 0.00 0.00 61 1013.8
20260508212704 72 164 0.0 1.0 0.00 0.00 0.00 54 1013.8
20260508211804 72 141 0.0 1.0 0.00 0.00 0.00 55 1013.8
20260508210905 72 133 0.0 1.0 0.00 0.00 0.00 56 1013.8
20260508210005 72 123 0.0 3.0 0.00 0.00 0.00 55 1013.5
20260508205404 72 270 0.0 4.0 0.00 0.00 0.00 53 1013.6
20260508204504 71 258 1.0 4.0 0.00 0.00 0.00 56 1013.6
20260508203623 71 292 2.0 4.0 0.00 0.00 0.00 55 1013.8
20260508202704 71 307 2.0 6.0 0.00 0.00 0.00 53 1013.9
20260508201827 71 289 3.0 7.0 0.00 0.00 0.00 53 1014.2
20260508200914 72 280 1.0 6.0 0.00 0.00 0.00 50 1014.3
20260508200005 72 161 1.0 3.0 0.00 0.00 0.00 50 1014.2
20260508195404 72 215 1.0 4.0 0.00 0.00 0.00 51 1014.2
20260508194505 73 126 1.0 4.0 0.00 0.00 0.00 50 1014.3
20260508193605 73 113 2.0 6.0 0.00 0.00 0.00 50 1014.3
20260508192704 74 86 1.0 6.0 0.00 0.00 0.00 51 1014.5
20260508191842 74 121 1.0 4.0 0.00 0.00 0.00 51 1014.7
20260508190904 73 199 1.0 4.0 0.00 0.00 0.00 50 1014.9
20260508190005 74 163 1.0 4.0 0.00 0.00 0.00 50 1015.0
20260508185404 73 231 1.0 4.0 0.00 0.00 0.00 52 1015.1
20260508184505 73 207 1.0 5.0 0.00 0.00 0.00 48 1015.2
20260508183605 72 245 2.0 8.0 0.00 0.00 0.00 52 1015.3
20260508182704 73 258 1.0 6.0 0.00 0.00 0.00 52 1015.5
20260508181806 73 212 1.0 4.0 0.00 0.00 0.00 51 1015.5
20260508180926 72 264 2.0 5.0 0.00 0.00 0.00 54 1015.6
20260508180008 72 161 2.0 5.0 0.00 0.00 0.00 57 1015.6
20260508175422 72 56 1.0 5.0 0.00 0.00 0.00 51 1015.8
20260508174505 72 143 2.0 6.0 0.00 0.00 0.00 53 1016.0
20260508173605 71 207 2.0 6.0 0.00 0.00 0.00 58 1016.1
20260508172705 72 141 3.0 9.0 0.00 0.00 0.00 55 1016.1
20260508171805 72 161 2.0 6.0 0.00 0.00 0.00 55 1016.2
20260508170905 72 157 1.0 6.0 0.00 0.00 0.00 55 1016.2
20260508170020 70 160 2.0 6.0 0.00 0.00 0.00 56 1016.5
20260508165426 70 130 2.0 6.0 0.00 0.00 0.00 55 1016.6
20260508164504 70 34 1.0 6.0 0.00 0.00 0.00 57 1016.8
20260508163604 69 41 3.0 8.0 0.00 0.00 0.00 58 1016.9
20260508162704 69 75 2.0 8.0 0.00 0.00 0.00 57 1017.1
20260508161804 69 94 2.0 6.0 0.00 0.00 0.00 58 1017.2
20260508160905 69 178 1.0 7.0 0.00 0.00 0.00 61 1017.3
20260508160025 69 174 2.0 5.0 0.00 0.00 0.00 61 1017.3
20260508155405 68 157 2.0 5.0 0.00 0.00 0.00 61 1017.4
20260508154504 68 134 2.0 6.0 0.00 0.00 0.00 59 1017.6
20260508153644 68 97 2.0 8.0 0.00 0.01 0.00 63 1017.6
20260508152704 68 110 2.0 7.0 0.00 0.04 0.00 59 1017.8
20260508151804 68 98 1.0 5.0 0.00 0.05 0.00 62 1017.7
20260508150905 67 97 1.0 7.0 0.00 0.05 0.00 67 1017.6
20260508150005 66 82 2.0 7.0 0.00 0.05 0.00 65 1017.5
20260508145427 66 91 2.0 7.0 0.00 0.06 0.00 65 1017.5
20260508144504 66 102 2.0 7.0 0.00 0.06 0.00 65 1017.6
20260508143625 65 107 2.0 5.0 0.00 0.07 0.00 65 1017.6
20260508142704 64 82 2.0 6.0 0.00 0.09 0.00 67 1017.8
20260508141825 64 60 2.0 6.0 0.00 0.09 0.00 72 1017.7
20260508140922 63 92 2.0 5.0 0.00 0.10 0.00 72 1017.9
20260508140005 63 106 1.0 7.0 0.00 0.11 0.00 77 1017.9
20260508135404 62 110 1.0 7.0 0.00 0.19 0.00 77 1017.9
20260508134505 61 74 1.0 5.0 0.00 0.30 0.00 81 1017.7
20260508133604 61 65 1.0 3.0 0.00 0.40 0.00 84 1017.7
20260508132704 60 157 0.0 3.0 0.00 0.45 0.00 92 1017.8
20260508131805 59 36 0.0 1.0 0.00 0.48 0.00 94 1017.7
20260508130928 58 29 0.0 3.0 0.00 0.50 0.00 96 1017.5
20260508130005 58 13 0.0 2.0 0.00 0.56 0.00 97 1017.4
20260508125427 58 4 0.0 2.0 0.00 0.58 0.00 97 1017.4
20260508124504 57 293 0.0 1.0 0.00 0.63 0.00 97 1017.1
20260508123625 56 317 0.0 1.0 0.00 0.66 0.00 97 1017.1
20260508122704 56 332 0.0 1.0 0.00 0.73 0.00 97 1017.0
20260508121805 55 0 0.0 0.0 0.00 0.84 0.00 97 1016.9
20260508120905 54 0 0.0 0.0 0.00 0.89 0.00 97 1016.8
20260508120004 54 0 0.0 0.0 0.00 0.89 0.00 97 1016.9
20260508115405 53 0 0.0 0.0 0.00 0.89 0.00 97 1016.8
20260508114525 53 0 0.0 0.0 0.00 0.89 0.00 96 1016.7
20260508113606 52 0 0.0 0.0 0.00 0.89 0.00 96 1016.5
20260508112706 52 0 0.0 0.0 0.00 0.89 0.00 96 1016.2
20260508111804 52 0 0.0 0.0 0.00 0.89 0.00 96 1016.0
20260508110926 52 0 0.0 0.0 0.00 0.90 0.00 96 1015.7
20260508110006 52 0 0.0 0.0 0.00 0.91 0.00 96 1015.6
20260508105404 52 0 0.0 0.0 0.00 0.92 0.00 96 1015.5
20260508104504 52 0 0.0 0.0 0.00 0.94 0.00 96 1015.4
20260508103609 52 0 0.0 0.0 0.00 0.96 0.00 96 1015.3
20260508102725 52 0 0.0 0.0 0.00 0.97 0.00 96 1015.1
20260508101806 52 0 0.0 0.0 0.00 0.97 0.00 96 1015.1
20260508100925 52 0 0.0 0.0 0.00 0.98 0.00 96 1014.9
20260508100006 52 0 0.0 0.0 0.00 1.00 0.00 96 1014.7
20260508095404 52 0 0.0 0.0 0.00 1.00 0.00 96 1014.6
20260508094517 52 0 0.0 0.0 0.00 1.03 0.00 96 1014.5
20260508093640 52 0 0.0 0.0 0.00 1.03 0.00 95 1014.6
20260508092705 52 0 0.0 0.0 0.00 1.03 0.00 96 1014.5
20260508091804 52 0 0.0 0.0 0.00 1.03 0.00 95 1014.4
20260508090904 53 0 0.0 0.0 0.00 1.03 0.00 95 1014.3
20260508090005 52 0 0.0 0.0 0.00 1.03 0.00 95 1014.1
20260508085405 53 0 0.0 0.0 0.00 1.03 0.00 95 1014.2
20260508084532 53 0 0.0 0.0 0.00 1.04 0.00 95 1014.3
20260508083604 53 0 0.0 0.0 0.00 1.05 0.00 95 1014.2
20260508082705 54 0 0.0 0.0 0.00 1.05 0.00 95 1014.3
20260508081805 54 0 0.0 0.0 0.00 1.05 0.00 95 1014.2
20260508080906 54 0 0.0 0.0 0.00 1.05 0.00 95 1014.1
20260508080005 55 0 0.0 0.0 0.00 1.06 0.00 95 1013.9
20260508075404 55 0 0.0 0.0 0.00 1.06 0.00 95 1013.9
20260508074517 55 0 0.0 0.0 0.00 1.06 0.00 94 1014.1
20260508073606 55 0 0.0 0.0 0.00 1.06 0.00 94 1014.1
20260508072704 55 0 0.0 0.0 0.00 1.06 0.00 94 1014.0
20260508071807 55 0 0.0 0.0 0.00 1.06 0.00 94 1013.9
20260508070904 56 0 0.0 0.0 0.00 1.06 0.00 94 1013.9
20260508070005 56 0 0.0 0.0 0.00 1.07 0.00 93 1013.9
20260508065425 56 0 0.0 0.0 0.00 1.07 0.00 93 1013.9
20260508064519 56 0 0.0 0.0 0.00 1.07 0.00 93 1013.7
20260508063625 56 0 0.0 0.0 0.00 1.07 0.00 91 1013.7
20260508062705 57 0 0.0 0.0 0.00 1.07 0.00 91 1013.6
20260508061847 57 0 0.0 0.0 0.00 1.07 0.00 91 1013.4
20260508060905 58 0 0.0 0.0 0.00 1.07 0.00 91 1013.5
20260508060005 58 0 0.0 0.0 0.00 1.07 0.00 90 1013.6